Regional Weather Roundup
Issued by NWS

Home | Current Version | Previous Version | Graphics & Text | Print | Product List | Glossary On
Versions: 1 2 3 4 5 6 7 8 9 10 11 12 13 14 15 16 17 18 19 20 21 22 23 24 25 26 27 28 29 30 31 32 33 34 35 36 37 38 39 40 41 42 43 44 45 46 47 48 49 50
615
ASUS43 KBIS 070802
RWRND

NORTH DAKOTA REGIONAL WEATHER ROUNDUP
NATIONAL WEATHER SERVICE BISMARCK ND
200 AM CST SUN FEB 07 2016

NOTE: "FAIR" INDICATES FEW OR NO CLOUDS BELOW 12,000 FEET WITH NO
SIGNIFICANT WEATHER AND/OR OBSTRUCTIONS TO VISIBILITY.


NDZ001>003-009>011-017-070900-
NORTHWEST NORTH DAKOTA

CITY           SKY/WX    TMP DP  RH WIND       PRES   REMARKS
WILLISTON      CLEAR     36  23  59 W26G33    29.83R
MINOT          CLOUDY    38  21  50 W25G36    29.67S
MINOT AFB      MOCLDY    37  23  58 W23G29    29.65R
$$

NDZ018>021-031>035-040>046-070900-
SOUTHWEST NORTH DAKOTA

CITY           SKY/WX    TMP DP  RH WIND       PRES   REMARKS
BISMARCK       CLEAR     39  23  52 W25G37    29.79S
DICKINSON      PTCLDY    33  23  66 W24G35    29.86R
GARRISON         N/A     35  24  64 W24       29.74R
HETTINGER ARPT CLOUDY    34  25  69 W30G40    29.93R
$$

NDZ004>008-012>016-024-026-027-054-070900-
NORTHEAST NORTH DAKOTA

CITY           SKY/WX    TMP DP  RH WIND       PRES   REMARKS
GRAND FORKS    LGT RAIN  36  31  82 W22G29    29.46F
GRND FRKS AFB  FLURRIES  36  32  88 W21G29    29.47S
DEVILS LAKE    CLOUDY    35  28  75 W30G36    29.53R
$$

NDZ022-023-025-028>030-036>039-047>053-070900-
SOUTHEAST NORTH DAKOTA

CITY           SKY/WX    TMP DP  RH WIND       PRES   REMARKS
FARGO          LGT RAIN  37  31  78 W23       29.55S
JAMESTOWN      MOCLDY    36  25  64 W24G37    29.62R
$$





USA.gov is the U.S. government's official web portal to all federal, state and local government web resources and services.